TimeCST,TemperatureF,Dew PointF,Humidity,Sea Level PressureIn,VisibilityMPH,Wind Direction,Wind SpeedMPH,Gust SpeedMPH,PrecipitationIn,Events,Conditions,WindDirDegrees,DateUTC
12:55 AM,16.0,11.5,82,30.29,10.0,Calm,Calm,-,N/A,,Clear,0,2013-01-02 06:55:00
1:55 AM,14.9,10.9,84,30.29,10.0,Calm,Calm,-,N/A,,Clear,0,2013-01-02 07:55:00
2:55 AM,12.6,10.0,90,30.30,10.0,Calm,Calm,-,N/A,,Clear,0,2013-01-02 08:55:00
3:55 AM,10.6,8.6,92,30.28,10.0,Calm,Calm,-,N/A,,Clear,0,2013-01-02 09:55:00
4:55 AM,11.7,9.7,92,30.29,10.0,Calm,Calm,-,N/A,,Clear,0,2013-01-02 10:55:00
5:55 AM,10.9,8.8,91,30.30,10.0,Calm,Calm,-,N/A,,Clear,0,2013-01-02 11:55:00
6:55 AM,10.2,8.6,93,30.31,10.0,WSW,3.5,-,N/A,,Clear,240,2013-01-02 12:55:00
7:55 AM,10.0,8.4,93,30.31,10.0,Calm,Calm,-,N/A,,Clear,0,2013-01-02 13:55:00
8:55 AM,13.8,11.7,91,30.31,8.0,Calm,Calm,-,N/A,,Clear,0,2013-01-02 14:55:00
9:55 AM,19.4,14.2,80,30.31,9.0,ESE,3.5,-,N/A,,Clear,110,2013-01-02 15:55:00
10:55 AM,22.8,15.6,74,30.30,10.0,Variable,3.5,-,N/A,,Clear,0,2013-01-02 16:55:00
11:55 AM,25.5,14.7,64,30.28,10.0,Calm,Calm,-,N/A,,Clear,0,2013-01-02 17:55:00
12:55 PM,26.8,12.6,55,30.25,10.0,Calm,Calm,-,N/A,,Partly Cloudy,0,2013-01-02 18:55:00
1:55 PM,27.0,14.5,60,30.24,10.0,Calm,Calm,-,N/A,,Clear,0,2013-01-02 19:55:00
2:55 PM,27.3,16.0,62,30.25,10.0,SE,6.9,-,N/A,,Clear,140,2013-01-02 20:55:00
3:55 PM,26.8,15.4,62,30.25,10.0,SSE,5.8,-,N/A,,Clear,150,2013-01-02 21:55:00
4:55 PM,24.8,15.3,67,30.24,10.0,SE,4.6,-,N/A,,Clear,140,2013-01-02 22:55:00
5:55 PM,23.7,13.5,65,30.24,10.0,Calm,Calm,-,N/A,,Clear,0,2013-01-02 23:55:00
6:55 PM,22.5,13.6,69,30.26,10.0,Calm,Calm,-,N/A,,Clear,0,2013-01-03 00:55:00
7:55 PM,21.4,14.2,74,30.26,10.0,SSE,4.6,-,N/A,,Clear,160,2013-01-03 01:55:00
8:55 PM,20.5,12.6,71,30.25,10.0,SSE,3.5,-,N/A,,Clear,160,2013-01-03 02:55:00
9:55 PM,17.4,11.7,78,30.26,10.0,Calm,Calm,-,N/A,,Clear,0,2013-01-03 03:55:00
10:55 PM,18.5,12.2,76,30.26,10.0,Calm,Calm,-,N/A,,Clear,0,2013-01-03 04:55:00
11:55 PM,17.1,13.6,86,30.26,10.0,Calm,Calm,-,N/A,,Clear,0,2013-01-03 05:55:00